| time (UTC) | temp F | wind direction | speed knots | gust knots | rain 1hr in | rain 24hr in | rain mn in | humidity % | barometer mb |
| 20260502233009 | 54 | 209 | 4.3 | 7.0 | 0.00 | 0.00 | 0.00 | 94 | 947.2 |
| 20260502231514 | 54 | 145 | 2.6 | 8.7 | 0.00 | 0.00 | 0.00 | 94 | 947.2 |
| 20260502230008 | 54 | 198 | 2.6 | 6.1 | 0.00 | 0.00 | 0.00 | 94 | 947.2 |
| 20260502224503 | 54 | 159 | 3.5 | 7.0 | 0.00 | 0.00 | 0.00 | 94 | 947.3 |
| 20260502223003 | 54 | 182 | 3.5 | 7.0 | 0.00 | 0.00 | 0.00 | 94 | 947.2 |
| 20260502221600 | 54 | 117 | 2.6 | 6.1 | 0.00 | 0.00 | 0.00 | 94 | 947.0 |
| 20260502220104 | 54 | 148 | 2.6 | 7.0 | 0.00 | 0.00 | 0.00 | 94 | 947.0 |
| 20260502214556 | 54 | 134 | 2.6 | 7.8 | 0.00 | 0.00 | 0.00 | 94 | 946.9 |
| 20260502213055 | 54 | 185 | 4.3 | 8.7 | 0.00 | 0.00 | 0.00 | 94 | 946.9 |
| 20260502211555 | 54 | 190 | 2.6 | 7.0 | 0.00 | 0.00 | 0.00 | 95 | 946.9 |
| 20260502210104 | 55 | 161 | 1.7 | 4.3 | 0.00 | 0.00 | 0.00 | 95 | 947.0 |
| 20260502204553 | 55 | 186 | 1.7 | 4.3 | 0.00 | 0.00 | 0.00 | 95 | 946.8 |
| 20260502203053 | 55 | 188 | 1.7 | 5.2 | 0.00 | 0.00 | 0.00 | 95 | 946.8 |
| 20260502201559 | 55 | 138 | 3.5 | 6.1 | 0.00 | 0.00 | 0.00 | 94 | 946.7 |
| 20260502200059 | 55 | 185 | 3.5 | 6.1 | 0.00 | 0.00 | 0.00 | 94 | 946.9 |
| 20260502194555 | 55 | 144 | 1.7 | 7.8 | 0.00 | 0.00 | 0.00 | 93 | 946.6 |
| 20260502193050 | 55 | 131 | 6.1 | 8.7 | 0.00 | 0.00 | 0.00 | 94 | 946.4 |
| 20260502191553 | 55 | 157 | 1.7 | 7.8 | 0.00 | 0.00 | 0.00 | 94 | 946.2 |
| 20260502184556 | 55 | 115 | 7.0 | 9.6 | 0.00 | 0.00 | 0.00 | 95 | 946.4 |
| 20260502183046 | 56 | 118 | 6.1 | 8.7 | 0.00 | 0.00 | 0.00 | 95 | 946.6 |
| 20260502181543 | 57 | 170 | 1.7 | 4.3 | 0.00 | 0.00 | 0.00 | 95 | 946.7 |
| 20260502180104 | 57 | 161 | 1.7 | 6.1 | 0.00 | 0.00 | 0.00 | 94 | 946.6 |
| 20260502163037 | 57 | 157 | 1.7 | 5.2 | 0.00 | 0.00 | 0.00 | 92 | 946.4 |
| 20260502161536 | 57 | 165 | 1.7 | 5.2 | 0.00 | 0.00 | 0.00 | 91 | 946.6 |
| 20260502151534 | 57 | 173 | 2.6 | 6.1 | 0.00 | 0.00 | 0.00 | 92 | 946.9 |
| 20260502123023 | 60 | 158 | 6.1 | 13.0 | 0.00 | 0.00 | 0.00 | 84 | 947.7 |
| 20260502121524 | 59 | 171 | 4.3 | 15.6 | 0.00 | 0.00 | 0.00 | 87 | 948.0 |
| 20260502114520 | 58 | 138 | 6.1 | 13.9 | 0.00 | 0.00 | 0.00 | 91 | 947.9 |
| 20260502113018 | 58 | 138 | 7.8 | 17.4 | 0.00 | 0.00 | 0.00 | 91 | 948.3 |
| 20260502111514 | 58 | 142 | 8.7 | 17.4 | 0.00 | 0.00 | 0.00 | 92 | 948.8 |
| 20260502110012 | 58 | 95 | 7.8 | 15.6 | 0.00 | 0.00 | 0.00 | 89 | 949.1 |
| 20260502104512 | 60 | 147 | 7.0 | 13.9 | 0.00 | 0.00 | 0.00 | 85 | 949.8 |
| 20260502103012 | 60 | 180 | 6.1 | 19.1 | 0.00 | 0.00 | 0.00 | 84 | 949.8 |
| 20260502101512 | 60 | 171 | 6.1 | 19.1 | 0.00 | 0.00 | 0.00 | 85 | 949.4 |
| 20260502091507 | 58 | 183 | 8.7 | 15.6 | 0.00 | 0.00 | 0.00 | 88 | 949.6 |
| 20260502080109 | 58 | 183 | 7.8 | 18.2 | 0.00 | 0.00 | 0.00 | 87 | 949.8 |
| 20260502070057 | 57 | 162 | 8.7 | 19.1 | 0.00 | 0.00 | 0.00 | 87 | 949.7 |
| 20260502064600 | 57 | 178 | 6.1 | 16.5 | 0.00 | 0.00 | 0.00 | 88 | 949.7 |
| 20260502063100 | 57 | 159 | 6.1 | 14.8 | 0.00 | 0.00 | 0.00 | 88 | 949.8 |
| 20260502061553 | 57 | 138 | 8.7 | 19.1 | 0.00 | 0.00 | 0.00 | 88 | 949.6 |
| 20260502054548 | 57 | 169 | 7.8 | 20.9 | 0.00 | 0.00 | 0.00 | 88 | 949.2 |
| 20260502053053 | 57 | 149 | 11.3 | 26.9 | 0.00 | 0.00 | 0.00 | 89 | 949.3 |
| 20260502051554 | 57 | 198 | 11.3 | 22.6 | 0.00 | 0.00 | 0.00 | 89 | 949.2 |
| 20260502050038 | 57 | 162 | 10.4 | 22.6 | 0.00 | 0.00 | 0.00 | 89 | 949.5 |
| 20260502044540 | 57 | 155 | 12.2 | 21.7 | 0.00 | 0.00 | 0.00 | 89 | 949.8 |
| 20260502043035 | 57 | 206 | 12.2 | 18.2 | 0.00 | 0.00 | 0.00 | 89 | 949.6 |
| 20260502041537 | 57 | 171 | 7.0 | 15.6 | 0.00 | 0.00 | 0.00 | 88 | 949.7 |
| 20260502040031 | 57 | 108 | 9.6 | 16.5 | 0.00 | 0.00 | 0.00 | 88 | 949.9 |
| 20260502034533 | 57 | 137 | 8.7 | 18.2 | 0.00 | 0.00 | 0.00 | 87 | 950.1 |
| 20260502033031 | 57 | 180 | 7.0 | 14.8 | 0.00 | 0.00 | 0.00 | 87 | 950.0 |
| 20260502031529 | 57 | 150 | 9.6 | 18.2 | 0.00 | 0.00 | 0.00 | 86 | 949.8 |
| 20260502030027 | 57 | 186 | 7.8 | 14.8 | 0.00 | 0.00 | 0.00 | 85 | 949.8 |
| 20260502024525 | 58 | 128 | 7.8 | 18.2 | 0.00 | 0.00 | 0.00 | 84 | 949.8 |
| 20260502023023 | 58 | 99 | 5.2 | 17.4 | 0.00 | 0.00 | 0.00 | 84 | 950.0 |
| 20260502021518 | 58 | 144 | 7.8 | 18.2 | 0.00 | 0.00 | 0.00 | 83 | 950.3 |
| 20260502020020 | 58 | 175 | 10.4 | 17.4 | 0.00 | 0.00 | 0.00 | 83 | 950.6 |
| 20260502014513 | 58 | 140 | 8.7 | 19.1 | 0.00 | 0.00 | 0.00 | 82 | 950.6 |
| 20260502013011 | 59 | 168 | 8.7 | 15.6 | 0.00 | 0.00 | 0.00 | 82 | 950.6 |
| 20260502011533 | 59 | 123 | 7.8 | 18.2 | 0.00 | 0.00 | 0.00 | 81 | 950.6 |
| 20260502010007 | 59 | 147 | 5.2 | 15.6 | 0.00 | 0.00 | 0.00 | 81 | 950.6 |
| 20260502004505 | 59 | 172 | 7.0 | 15.6 | 0.00 | 0.00 | 0.00 | 80 | 950.7 |
| 20260502003005 | 60 | 147 | 5.2 | 14.8 | 0.00 | 0.00 | 0.00 | 80 | 950.8 |
| 20260502001600 | 60 | 173 | 5.2 | 10.4 | 0.00 | 0.00 | 0.00 | 79 | 951.0 |
| 20260502000113 | 60 | 151 | 6.1 | 16.5 | 0.00 | 0.00 | 0.00 | 79 | 951.1 |
| 20260501234555 | 60 | 178 | 8.7 | 14.8 | 0.00 | 0.00 | 0.00 | 80 | 951.2 |